Location: Elstree
(51.6403°N, 0.2969°W)
Time: 22:25:13
(UTC+00:00)

deb Delta 107 - Pass Details

Date: 05 February 2022
Orbit: 707 x 861 km, 97.7° (Epoch: 21 May)

Event Time Altitude Azimuth Distance (km) Brightness Sun altitude
Rises 18:58:41 0° 209° (SSW) 3,148 ? -19.0°
Reaches altitude 10° 19:01:39 10° 228° (SW) 2,211 ? -19.5°
Maximum altitude 19:04:57 18° 272° (W) 1,708 ? -20.0°
Drops below altitude 10° 19:08:15 10° 315° (NW) 2,195 ? -20.5°
Sets 19:11:12 0° 335° (NNW) 3,116 ? -20.9°
